Location: Betra
(48.4113°N, 8.6634°E)
Time: 18:02:23
(UTC+00:00)

Aureole 3 - Pass Details

Date: 23 May 2024
Orbit: 378 x 1127 km, 82.5° (Epoch: 16 June)

Event Time Altitude Azimuth Distance (km) Brightness Sun altitude
Exits shadow 01:09:41 21° 279° (W) 929 4.3 -16.9°
Maximum altitude 01:09:59 21° 288° (WNW) 920 4.4 -16.9°
Drops below altitude 10° 01:12:22 10° 341° (NNW) 1,417 6.0 -16.7°
Sets 01:14:43 0° 358° (N) 2,318 7.6 -16.5°
